TIME,DELAY(SENSOR),PRES,T(CTD),SAL,OXYGEN,RAWTEMP,T(OPTODE),TCPHASE,FLUOR,BETA(BETA700),BETA(BETA412),BETA(BETA440),CDOM,C(CSC),ED(ED412.40),ED(ED444.00),ED(ED489.70),ED(ED554.30),LU(LU411.80),LU(LU443.40),LU(LU489.60),LU(LU554.10),COMP,TILTX,TILTX(TILTY),CHECK
1336167375,5807,497.2799987792969000,7.1543002128601070,34.1649017333984400,86.2347488403320300,582.9121704101562000,7.1348929405212400,47.9372406005859400,51,109,93,81,80,15286,2147747812,2147421577,2148001499,2147870134,2147627666,2147082523,2148245942,2147204992,2144,4,13,54556
1336167514,5806,487.1900024414062500,7.2979001998901370,34.1679992675781250,86.6201934814453100,578.2515869140625000,7.2846069335937500,47.8216896057128900,51,108,88,81,80,15288,2147748470,2147420672,2148000585,2147871442,2147626450,2147085750,2148248576,2147207972,32,4,13,29926
1336167657,5810,475.5700073242187500,7.5599999427795410,34.1650009155273440,90.4683837890625000,570.3568115234375000,7.5377731323242190,47.2653884887695300,52,108,87,80,81,15287,2147749092,2147422272,2148000064,2147875894,2147628187,2147088109,2148241024,2147202450,1105,4,13,40293
1336167784,5807,464.0899963378906000,7.7393999099731445,34.1412010192871100,106.9206008911132800,564.3673706054688000,7.7294712066650390,45.4118690490722660,51,111,93,82,80,15284,2147746093,2147425645,2148000832,2147872960,2147626816,2147087972,2148241746,2147205138,2023,4,13,47268
1336167901,5808,453.1900024414062500,7.9572000503540040,34.1384010314941400,115.8259963989257800,557.7802124023438000,7.9399452209472660,44.4163017272949200,51,109,89,81,80,15286,2147745133,2147422994,2147998756,2147871350,2147623981,2147090276,2148234806,2147206976,1295,4,13,54708
1336168016,5808,442.2399902343750000,8.0682001113891600,34.1404991149902340,119.5374984741211000,553.5208129882812000,8.0758457183837890,43.9859809875488300,51,110,90,82,79,15282,2147744137,2147421641,2147998683,2147871305,2147624301,2147095067,2148236507,2147207844,2477,4,13,58581
1336168131,5811,430.9899902343750000,8.2179002761840820,34.1351013183593750,124.7371978759765600,549.2020874023438000,8.2134838104248050,43.4219589233398440,50,110,89,82,78,15267,2147743771,2147425389,2147999753,2147872100,2147620123,2147093248,2148238153,2147206180,3090,4,13,16022
1336168236,5806,420.4400024414062500,8.2784996032714840,34.1371994018554700,128.3686981201172000,547.6843261718750000,8.2618217468261720,43.0621604919433600,50,109,90,81,79,15283,2147745051,2147420672,2148001362,2147873444,2147625773,2147095442,2148236288,2147208932,3510,4,13,20760
1336168351,5811,409.0199890136719000,8.4925003051757810,34.1250000000000000,137.7115936279297000,541.0244750976562000,8.4736900329589840,42.1158714294433600,50,111,90,81,77,15286,2147744475,2147422994,2148003483,2147871872,2147619465,2147092992,2148233398,2147208146,48,4,13,46767
1336168466,5809,398.5100097656250000,8.7283000946044920,34.1164016723632800,148.9033966064453000,533.7435913085938000,8.7049102783203120,41.0474205017089840,50,111,92,82,77,15285,2147743250,2147420699,2148000484,2147872045,2147618779,2147092699,2148234038,2147206061,3372,4,13,20417
1336168595,5809,387.5199890136719000,9.0303001403808600,34.1193008422851560,158.4389953613281200,523.5211181640625000,9.0288505554199220,40.1114997863769500,50,109,87,79,76,15287,2147743698,2147422189,2147999606,2147872027,2147618898,2147098806,2148234523,2147205769,2797,3,13,26563
1336168734,5807,376.5000000000000000,9.5693998336792000,34.1346015930175800,167.5814056396484400,507.2817993164062500,9.5418434143066400,39.1405715942382800,50,112,91,82,75,15279,2147742253,2147422354,2148001810,2147872987,2147616722,2147100059,2148225654,2147204050,2150,4,13,36592
1336168875,5808,365.2500000000000000,9.8907003402709960,34.1394996643066400,174.7017059326172000,496.6986999511719000,9.8751382827758790,38.4437789916992200,50,112,90,82,73,15285,2147739017,2147419401,2148000704,2147871872,2147613065,2147106852,2148226249,2147204736,2728,3,14,22004
1336169014,5805,354.2399902343750000,10.1307001113891600,34.1486015319824200,181.8390960693359400,488.9111938476562500,10.1198902130126950,37.8153190612793000,50,113,89,81,74,15283,2147735533,2147421485,2148001645,2147873746,2147613997,2147109568,2148219885,2147207579,2151,4,13,40459
1336169161,5807,342.2600097656250000,10.2280998229980470,34.1523017883300800,184.0776977539062500,484.6463928222656000,10.2537698745727540,37.5918312072753900,49,111,90,81,74,15284,2147738907,2147423104,2148005586,2147872786,2147614162,2147104283,2148230756,2147209179,1988,4,14,55999
1336169287,5811,330.6700134277344000,10.6916999816894530,34.1656990051269500,187.5950012207031200,471.2123107910156000,10.6746797561645500,37.1317100524902340,50,112,88,82,75,15283,2147736987,2147424804,2148007341,2147873325,2147608210,2147106688,2148224137,2147209142,3257,4,14,35951
1336169414,5809,319.7799987792969000,10.9104995727539060,34.1733016967773440,193.7525024414062500,463.8599853515625000,10.9045600891113280,36.6111717224121100,50,109,91,80,72,15286,2147736630,2147425746,2148010514,2147872960,2147610861,2147109979,2148225892,2147208420,773,3,14,14316
1336169555,5806,308.6099853515625000,11.5121002197265620,34.1940002441406250,199.4810028076172000,444.6227111816406000,11.5045404434204100,35.9370689392089840,49,112,91,81,73,15285,2147732361,2147426176,2148020352,2147871945,2147605961,2147114002,2148228982,2147212105,3541,3,14,12006
1336169694,5810,297.7099914550781000,12.3234996795654300,34.2201004028320300,201.5863952636718800,418.5061950683594000,12.3158102035522460,35.3896293640136700,49,110,90,80,71,15286,2147729298,2147426870,2148027108,2147870162,2147605412,2147120448,2148224338,2147211264,639,3,13,55460
1336169840,5808,284.6799926757812500,12.7473001480102540,34.2309989929199200,203.9091949462890600,403.6664123535156000,12.7752895355224610,35.0151786804199200,49,104,89,82,70,15291,2147732434,2147433161,2148045001,2147872265,2147601115,2147130843,2148228864,2147210688,327,4,13,18625
1336169943,5810,274.1199951171875000,13.1381998062133790,34.2500991821289060,209.4577026367187500,391.0351867675781000,13.1655998229980470,34.4929695129394500,50,106,88,80,71,15289,2147727945,2147441435,2148059593,2147871350,2147602404,2147134601,2148238025,2147212388,1386,3,14,45691
1336170058,5808,263.5299987792969000,13.6590003967285160,34.2728996276855500,203.4716033935547000,373.8888854980469000,13.6943798065185550,34.5798301696777340,49,106,86,80,70,15287,2147730221,2147447725,2148089901,2147870208,2147594176,2147141284,2148244178,2147217572,1539,4,14,44642
1336170199,5811,252.9600067138672000,14.6548995971679690,34.3466987609863300,190.1900024414062500,339.0216064453125000,14.7664203643798830,34.8659591674804700,49,106,88,81,69,15284,2147728219,2147464960,2148123712,2147871296,2147591387,2147157577,2148259392,2147213074,403,4,14,12656
1336170362,5808,242.0399932861328000,15.6909999847412110,34.4672012329101560,192.6723937988281200,309.1763916015625000,15.6812896728515620,34.2619018554687500,50,108,89,81,69,15281,2147725878,2147488713,2148180790,2147870921,2147589430,2147173869,2148277933,2147217380,930,3,14,47671
1336170496,5810,229.6300048828125000,16.3201999664306640,34.5449981689453100,200.0569000244140600,286.4696044921875000,16.3760890960693360,33.4780006408691400,50,109,88,81,68,15278,2147730788,2147531968,2148279030,2147871972,2147588516,2147210761,2148321865,2147224896,570,3,13,27970
1336170599,5808,218.3600006103515600,16.9930000305175780,34.6194992065429700,201.4662933349609400,264.7626953125000000,17.0395698547363280,33.0815391540527340,52,110,91,82,68,15270,2147744374,2147600320,2148412306,2147873627,2147589686,2147248667,2148385398,2147233270,1456,3,14,54876
1336170702,5809,208.0000000000000000,17.9277000427246100,34.7248001098632800,204.6967010498047000,236.1098022460937500,17.9147491455078120,32.4874305725097660,56,109,91,81,68,15270,2147776374,2147704228,2148597403,2147872237,2147597504,2147305344,2148472768,2147235968,2502,3,15,31154
1336173892,5806,97.8899993896484400,24.0231990814209000,34.8698997497558600,242.8359985351562500,37.1429595947265600,24.0212707519531250,27.9552803039550780,72,122,93,86,58,15163,2185907465,2190240859,2189892736,2148733577,2174178889,2175309138,2171005869,2149278537,1050,1,17,58394
1336173947,5809,94.7300033569336000,24.0247001647949220,34.8688011169433600,243.3222961425781200,37.0619201660156250,24.0237808227539060,27.9328002929687500,69,121,93,85,60,15160,2189580397,2194232082,2193708937,2148937152,2178544219,2179445147,2173953764,2149541284,810,2,16,3906
1336174002,5807,91.2900009155273400,24.0259990692138670,34.8662986755371100,243.3459930419922000,37.0088195800781250,24.0254306793212900,27.9311199188232420,68,124,95,84,58,15155,2193706953,2198782253,2198146468,2149173348,2183419145,2184126619,2177215497,2149823661,473,1,16,48574
1336174057,5809,87.9000015258789000,24.0301990509033200,34.8648986816406250,243.7745971679687500,36.8479194641113300,24.0304203033447270,27.9103908538818360,68,123,94,85,58,15146,2198567817,2204230912,2203462948,2149500827,2189124342,2189580827,2181104795,2150177883,177,2,16,29801
1336174112,5808,84.6699981689453100,24.0340995788574220,34.8651008605957000,244.0265960693359400,36.7320594787597660,24.0340194702148440,27.8977108001709000,66,122,91,85,58,15142,2203141778,2209190729,2208096329,2149856329,2195289069,2195391844,2185030902,2150539017,3469,1,16,23231
1336174167,5806,81.6200027465820300,24.0391006469726560,34.8656005859375000,244.2651062011718800,36.5723495483398440,24.0389709472656250,27.8852005004882800,67,124,91,84,56,15145,2207918875,2214488100,2213128155,2150257517,2201572982,2201413129,2189190180,2150943085,3259,1,17,32021
1336174224,5806,78.6900024414062500,24.0452995300292970,34.8658981323242200,244.4324035644531200,36.3688697814941400,24.0452804565429700,27.8753395080566400,66,122,94,84,57,15143,2214137526,2221286582,2219528265,2150819785,2208777344,2208199186,2193832786,2151365403,3084,1,16,38347
1336174279,5807,75.9700012207031200,24.0662994384765620,34.8703002929687500,244.3433990478515600,35.3999404907226560,24.0753402709960940,27.8672599792480470,64,122,94,85,56,15141,2220568612,2228663122,2226928201,2151448502,2216093522,2215292982,2198775113,2151878893,2899,1,17,46378
1336174334,5808,73.3700027465820300,24.1319007873535160,34.8852996826171900,244.0995941162109400,33.6482810974121100,24.1296806335449220,27.8564701080322270,65,123,93,85,58,15141,2226476160,2235350838,2233522980,2152224265,2223881837,2222881718,2204036918,2152437257,2516,1,17,11024
1336174389,5807,70.7900009155273400,24.1504001617431640,34.8886985778808600,244.0157928466797000,33.0444183349609400,24.1484203338623050,27.8527202606201170,62,124,92,87,58,15135,2232283346,2241361380,2239057408,2152892672,2230574317,2228854966,2207668699,2152787766,2406,2,16,50451
1336174444,5809,68.2200012207031200,24.1530990600585940,34.8880996704101560,244.1107025146484400,32.9240417480468750,24.1521606445312500,27.8469505310058600,60,126,93,85,55,15137,2228447789,2236243675,2233518317,2153078171,2229586112,2227541248,2206208859,2152790070,2413,2,17,377
1336174499,5805,65.4899978637695300,24.1562995910644530,34.8899002075195300,244.1636047363281200,32.7442588806152340,24.1577396392822270,27.8425197601318360,60,125,97,85,60,15133,2219978797,2225400548,2221869568,2152666998,2223475017,2220211657,2199733952,2152156900,2673,2,17,59208
1336174556,5809,62.5699996948242200,24.1769008636474600,34.8927001953125000,244.1963958740234400,32.0931091308593750,24.1779499053955080,27.8329200744628900,60,122,94,85,58,15136,2256538852,2267601956,2265394258,2156822921,2260759926,2258351515,2228372333,2155122715,2964,1,16,8206
1336174611,5805,59.8300018310546900,24.1811008453369140,34.8931007385253900,244.3022003173828000,31.8549098968505860,24.1853408813476560,27.8254604339599600,59,122,95,86,56,15128,2270589394,2283283620,2281567881,2159457984,2274903798,2271775405,2237530660,2156275099,3236,2,16,6680
1336174666,5809,57.1500015258789060,24.1882991790771500,34.8930015563964840,244.3444976806640600,31.6208400726318360,24.1926097869873050,27.8206596374511720,58,124,92,86,58,15128,2246697956,2254764224,2251992941,2157658651,2253925156,2250267483,2221234075,2154751908,3442,2,17,17473
1336174721,5809,54.5400009155273440,24.1879997253417970,34.8940010070800800,244.4375000000000000,31.5904502868652340,24.1935501098632800,27.8161792755126950,58,123,95,84,56,15131,2284002130,2296297846,2293856402,2162959396,2292051574,2288221357,2248805979,2157980214,3511,1,17,7890
1336174776,5809,52.0800018310546900,24.1881999969482420,34.8933982849121100,244.5095977783203000,31.5156097412109380,24.1958808898925780,27.8121490478515620,56,124,96,85,57,15120,2305073627,2319312594,2316912777,2167335003,2317416585,2312693769,2265785801,2160094372,3481,2,16,34683
1336174831,5807,49.6399993896484400,24.1891994476318360,34.8931007385253900,244.4990997314453000,31.4983997344970700,24.1964092254638670,27.8122901916503900,56,124,94,85,57,15131,2209802569,2209867766,2204356187,2153999387,2222321243,2215221997,2193036178,2151921298,3525,2,16,27297
1336174888,5806,47.2099990844726560,24.1891994476318360,34.8928985595703100,244.5789947509765600,31.6792602539062500,24.1907901763916000,27.8110904693603500,56,126,94,86,58,15126,2263566509,2270207670,2265592429,2163580589,2273603529,2266455387,2230641014,2156840713,3502,1,16,46499
1336174943,5808,44.9000015258789060,24.2089996337890620,34.8927001953125000,244.3975982666015600,31.0765800476074220,24.2094993591308600,27.8115806579589840,56,125,95,85,58,15125,2216967734,2217121280,2211473124,2156263515,2226465554,2218361600,2194863707,2152641142,3406,1,16,36931
1336174998,5813,42.7200012207031250,24.2737998962402340,34.8936004638671900,244.1970062255859400,28.9785308837890620,24.2746505737304700,27.7946300506591800,54,125,95,86,60,15127,2214025078,2212849435,2206502171,2156142582,2227218806,2217705590,2193510966,2152518518,3055,1,17,46202
1336175053,5810,40.7799987792968750,24.3218994140625000,34.8913993835449200,243.9396972656250000,27.5542602539062500,24.3188800811767580,27.7883090972900400,55,124,96,84,58,15128,2235379821,2235401627,2228062125,2160467062,2255394797,2243844781,2211032886,2154876900,2870,2,17,54027
1336175108,5809,38.8899993896484400,24.3435001373291000,34.8880996704101560,243.4608001708984400,26.5189609527587900,24.3510398864746100,27.7964706420898440,57,123,95,84,52,15132,2354748443,2370014729,2367160960,2191038774,2393855707,2381986852,2311317458,2168977600,2917,2,16,11345
1336175163,5810,36.9799995422363300,24.3418006896972660,34.8891983032226560,243.6965942382812500,26.3950405120849600,24.3548908233642580,27.7847099304199220,54,125,96,86,55,15130,2369073910,2386083556,2384479149,2198341988,2407436827,2394158473,2319652562,2171101092,2818,2,16,25726
1336175240,5805,33.5999984741210940,24.3691997528076170,34.8876991271972660,243.7846984863281200,25.7441692352294920,24.3751201629638670,27.7727794647216800,53,124,95,84,57,15133,2388491931,2407377810,2406618505,2211254281,2436048237,2419407067,2336169627,2175819419,2715,1,17,32089
1336175295,5806,30.7299995422363280,24.3773994445800780,34.8885002136230500,243.8511962890625000,25.4578800201416000,24.3840103149414060,27.7664299011230470,53,123,95,87,58,15134,2406266194,2427006464,2428198994,2228807341,2466099858,2446588589,2354678893,2180376000,2480,1,17,4301
1336175350,5810,27.6499996185302730,24.3929004669189450,34.8875999450683600,243.8535003662109400,24.8736991882324220,24.4021606445312500,27.7590007781982420,53,122,93,87,55,15129,2415853284,2436110482,2438416621,2241796050,2491723392,2468741933,2368689380,2184971218,2365,1,15,35270
1336175405,5816,24.6000003814697270,24.3992996215820300,34.8872985839843750,243.7259979248047000,24.5093193054199220,24.4134902954101560,27.7600898742675780,52,123,93,86,58,15140,2428656164,2448028416,2449636205,2257745362,2520684516,2494683739,2385424987,2191118720,2213,1,16,29189
